ASTRA 1N

Last updated on Oct. 23, 2020, 5:56 a.m. UTC

1 37775U 11041A   20296.82964019  .00000105  00000-0  00000+0 0  9999
2 37775   0.0511  44.9526 0001199 103.5415 201.1144  1.00269552 33714
UTC
Height (km)
Latitude
Longitude
Inclination
Orbital Period
UTC large
Height (km)
Speed (km/s)
/
Latitude / Longitude
Inclination (degrees)
Orbital Period (minutes)
Azimuth
Elevation
Range (km)
Doppler Factor
iOS Compass Heading
iOS Angle

Next 30 passes for location: Hong Kong

Rise time Rise Azimuth (degrees) Set time Set Azimuth (degrees) Duration Max altitude (degrees)

No matching passes for this satellites